Regional Weather Roundup
Issued by NWS Charleston, SC

Current Version | Previous Version | Graphics & Text | Print | Product List | Glossary On
Versions: 1 2 3 4 5 6 7 8 9 10 11 12 13 14 15 16 17 18 19 20 21 22 23 24 25 26 27 28 29 30 31 32 33 34 35 36 37 38 39 40 41 42 43 44 45 46 47 48 49 50
617
ASUS42 KCHS 241412
RWRCHS

REGIONAL WEATHER ROUNDUP
NATIONAL WEATHER SERVICE CHARLESTON SC
900 AM EST TUE JAN 24 2017

NOTE: "FAIR" INDICATES FEW OR NO CLOUDS BELOW 12,000 FEET WITH NO
SIGNIFICANT WEATHER AND/OR OBSTRUCTIONS TO VISIBILITY.

NOT ALL STATIONS ARE QUALITY CONTROLLED. USE DATA WITH CAUTION...
ESPECIALLY DEWPOINT OBSERVATIONS.

SCZ027-030-031-034>040-042>050-241500-
...SOUTHEAST SOUTH CAROLINA...

CITY           SKY/WX    TMP DP  RH WIND       PRES   REMARKS
N CHARLESTON   SUNNY     52  43  71 NW13      29.72R
WATERFRONT PRK   N/A     51  46  83 W8        29.70R
MOUNT PLEASANT FAIR      54  45  71 W8G18     29.72R
JOHNS ISLAND   FAIR      54  45  71 W15       29.72R
PINOPOLIS        N/A     50  46  87 W15       29.62R
MONCKS CORNER  FAIR      50  43  76 CALM      29.71R
SUMMERVILLE    FAIR      50  45  81 W8        29.73R
BEAUFORT MCAS  SUNNY     52  44  74 W14G22    29.75R
BEAUFORT ARPT  FAIR      52  43  71 NW13G20   29.74R
HILTON HEAD IS NOT AVBL
WALTERBORO     MOSUNNY   50  43  76 W6        29.74R
ALLENDALE      FAIR      50  43  76 VRB6      29.74R

...SOUTHERN MIDLANDS AND PEE DEE...

CITY           SKY/WX    TMP DP  RH WIND       PRES   REMARKS
GEORGETOWN     FAIR      50  46  87 W8        29.70R
KINGSTREE      FAIR      50  43  76 W9        29.70R
ORANGEBURG     MOSUNNY   50  42  74 W12       29.72R
BARNWELL       FAIR      52  45  76 W9G15     29.74R
AIKEN          FAIR      46  41  81 W9        29.77R
MANNING        FAIR      50  34  53 W8        29.70R
COLUMBIA       SUNNY     52  42  69 W13       29.71R
SUMTER         SUNNY     50  44  80 W14       29.68R
FLORENCE       SUNNY     50  46  86 W10       29.68R
MYRTLE BEACH   MOSUNNY   48  43  81 NW6       29.69R
N MYRTLE BEACH CLOUDY    48  45  89 W6        29.66R

$$

GAZ063-065-086>088-099>101-113>116-118-119-134>141-150-241500-
...SOUTHEAST GEORGIA...

CITY           SKY/WX    TMP DP  RH WIND       PRES   REMARKS
SAVANNAH ARPT  SUNNY     53  43  68 W13       29.77R
HUNTER AAF     SUNNY     53  48  84 W13G23    29.74R
FORT STEWART   SUNNY     53  44  73 W13G22    29.76R
STATESBORO     SUNNY     53  47  80 NW13G20   29.77R
SYLVANIA       SUNNY    N/A N/A N/A NW12      29.77R
CLAXTON        FAIR     N/A N/A N/A SW12G18   29.79R

...CSRA...CENTRAL AND FAR SOUTHEAST GEORGIA...

CITY           SKY/WX    TMP DP  RH WIND       PRES   REMARKS
THOMSON        SUNNY     51  45  82 NW8       29.81R
AUGUSTA-BUSH   SUNNY     53  42  66 NW8       29.75R
AUGUSTA-DANIEL SUNNY     50  40  68 W9        29.76R
SWAINSBORO     FAIR      50  45  81 W12G18    29.80R
VIDALIA        SUNNY     52  48  87 W10G18    29.81R
EASTMAN        FAIR      52  39  62 W6G16     29.87R
HAZLEHURST     FAIR      53  49  86 W6G16     29.82R
ALMA           MOSUNNY   52  47  83 W8        29.83R
WAYCROSS       SUNNY     55  52  89 W13       29.84R
JESUP          FAIR      54  45  71 NW13      29.81R
BAXLEY         FAIR      54  50  87 W12       29.82R
BRUNSWICK      SUNNY     55  50  82 W10G20    29.81R
SAINT SIMONS   SUNNY     54  48  80 W13       29.80R

$$

SCZ027-028-034-036>038-045-046-048>050-GAZ119-141-241500-
...LAKE AND SUPPLEMENTAL COASTAL OBSERVATIONS...

STATION/POSITION TIME  TEMP    WIND        PRES    WAVE   SWELL
                       AIR SEA DIR/SP/G            HT/PER HT/PER/DIR
                 (UTC) (F)     (DEG/KT/KT) (MB)    (FT/S) (FT/S/D)
WINYAH BAY       NOT AVBL
LAKE MURRAY      1320   48     290/  9/ 15 1005.4
ACE BASIN NERRS  1245   49     270/  3     1006.0
FORT PULASKI     1342   52 58  310/ 18/ 22 1007.7R
SAPELO ISLAND    1300   53     280/ 12     1008.0

$$

ANZ835-935-AMZ111-154-330-350-352-354-370-450-454-472-241500-
...C-MAN AND BUOY OBSERVATIONS...

STATION/POSITION TIME  TEMP    WIND        PRES    WAVE   SWELL
                       AIR SEA DIR/SP/G            HT/PER HT/PER/DIR
                 (UTC) (F)     (DEG/KT/KT) (MB)    (FT/S) (FT/S/D)
BUOY 41004       1250   57 69  300/ 21/ 25 1003.8    7/ 8   5/190/ 8
BUOY 41008       1250   55 59  270/ 21/ 25 1006.5    4/ 5
FOLLY BEACH CMAN 1300   51     280/ 10/ 15 1005.9R
CAPERS NEARSHORE 1308   52 56  290/ 17/ 23 1004.8R
FRIPP NEARSHORE  1308   53 58  300/ 17/ 21 1006.3R


STATION/POSITION TIME  TEMP    WIND        PRES    WAVE   SWELL
                       AIR SEA DIR/SP/G            HT/PER HT/PER/DIR
                 (UTC) (F)     (DEG/KT/KT) (MB)    (FT/S) (FT/S/D)
5E ST. MARYS GA  1330      62                N/A     3/ 3   2/ 70/15
FRYING PAN BUOY  1350   54 69  300/ 17/ 23 1003.8R   6/ 5   3/160/10
BUOY 41025       1350   46 74  320/ 23/ 27  998.7    9/11   7/160/11
CAPE LOOKOUT NC  1300   45     310/ 20/ 23 1000.0R
BUOY 41002       1250   67 71  300/ 27/ 33  999.0   13/11  10/270/11
BUOY 41010       NOT AVBL
ST AUGUSTINE FL  1400   56 62  290/ 12/ 18 1010.8R


$$




USA.gov is the U.S. government's official web portal to all federal, state and local government web resources and services.